EW3453 Weather Reports


time (UTC)temp
C
wind
direction
speed
KPH
gust
KPH
rain 1hr
cm
rain 24hr
cm
rain mn
cm
humidity
%
barometer
mb
20260507124527 7 65 0.0 1.6 0.00 0.33 0.00 63 1013.6
20260507123035 7 68 0.0 4.8 0.00 0.33 0.00 66 1013.6
20260507121525 7 73 0.0 3.2 0.00 0.33 0.00 68 1013.4
20260507120023 6 50 0.0 4.8 0.00 0.33 0.00 71 1013.4
20260507114521 6 50 0.0 4.8 0.00 0.56 0.00 73 1013.2
20260507113026 5 37 0.0 1.6 0.00 0.56 0.00 80 1013.2
20260507111519 3 35 0.0 0.0 0.00 0.56 0.00 86 1013.1
20260507110017 2 35 0.0 0.0 0.00 0.56 0.00 86 1012.9
20260507104516 2 35 0.0 0.0 0.00 0.61 0.00 86 1012.7
20260507103015 2 35 0.0 0.0 0.00 0.61 0.00 86 1012.7
20260507101517 2 35 0.0 0.0 0.00 0.61 0.00 86 1012.6
20260507100013 2 35 0.0 0.0 0.00 0.61 0.00 84 1012.6
20260507094511 2 35 0.0 0.0 0.00 0.64 0.00 83 1012.6
20260507093010 3 35 0.0 0.0 0.00 0.64 0.00 82 1012.4
20260507091505 3 34 0.0 0.0 0.00 0.64 0.00 81 1012.5
20260507090002 3 34 0.0 0.0 0.00 0.64 0.00 78 1012.4
20260507084557 5 34 0.0 0.0 0.00 0.64 0.00 76 1012.3
20260507083054 5 34 0.0 0.0 0.00 0.64 0.00 72 1012.4
20260507081551 6 34 0.0 0.0 0.00 0.64 0.00 68 1012.4
20260507080048 6 34 0.0 0.0 0.00 0.64 0.00 66 1012.4
20260507074553 7 34 0.0 0.0 0.00 0.64 0.00 65 1012.4
20260507073044 7 34 0.0 3.2 0.00 0.64 0.00 65 1012.4
20260507071542 7 83 0.0 3.2 0.00 0.64 0.00 63 1012.4
20260507070047 7 309 0.0 0.0 0.00 0.64 0.00 64 1012.1
20260507064643 7 63 0.0 6.4 0.00 0.64 0.00 63 1012.3
20260507063038 7 49 1.6 4.8 0.00 0.64 0.00 62 1012.3
20260507061537 7 320 0.0 3.2 0.00 0.64 0.00 63 1012.5
20260507060040 7 89 0.0 1.6 0.00 0.64 0.00 62 1012.6
20260507054536 7 45 0.0 4.8 0.00 0.64 0.00 62 1012.6
20260507053032 7 56 0.0 3.2 0.00 0.64 0.00 62 1012.5
20260507051530 7 37 0.0 3.2 0.00 0.64 0.00 62 1012.7
20260507050035 8 48 0.0 3.2 0.00 0.64 0.00 63 1012.6
20260507044526 8 47 0.0 3.2 0.00 0.64 0.00 62 1012.7
20260507043024 8 88 0.0 3.2 0.00 0.64 0.00 63 1012.6
20260507041537 8 31 0.0 1.6 0.00 0.64 0.00 66 1012.4
20260507040017 8 38 0.0 3.2 0.00 0.64 0.00 67 1012.2
20260507034517 8 51 0.0 1.6 0.00 0.64 0.64 67 1012.4
20260507033015 8 50 0.0 1.6 0.00 0.64 0.64 66 1012.3
20260507031512 8 50 0.0 4.8 0.00 0.64 0.64 66 1012.1
20260507030010 9 67 0.0 6.4 0.00 0.64 0.64 68 1011.9
20260507024507 9 31 1.6 9.7 0.00 0.64 0.64 70 1011.7
20260507023005 10 63 1.6 8.0 0.00 0.64 0.64 76 1011.8
20260507021502 10 51 3.2 8.0 0.00 0.64 0.64 76 1011.4
20260507020100 10 51 1.6 8.0 0.00 0.64 0.64 80 1011.4
20260507014607 10 51 0.0 1.6 0.00 0.64 0.64 81 1011.7
20260507013113 10 51 0.0 3.2 0.00 0.64 0.64 81 1011.7
20260507011556 10 51 0.0 1.6 0.00 0.64 0.64 81 1011.6
20260507010054 10 51 0.0 1.6 0.00 0.64 0.64 80 1011.7
20260507004553 10 74 0.0 3.2 0.00 0.64 0.64 80 1011.6
20260507003051 10 49 0.0 6.4 0.00 0.64 0.64 79 1011.4
20260507001607 10 82 0.0 6.4 0.00 0.64 0.64 81 1010.9
20260507000048 10 51 0.0 4.8 0.00 0.64 0.64 82 1010.8
20260506234543 10 20 0.0 4.8 0.00 0.64 0.64 82 1010.5
20260506233045 10 48 0.0 4.8 0.00 0.64 0.64 82 1010.1
20260506231544 11 36 0.0 3.2 0.00 0.64 0.64 83 1010.0
20260506230037 11 352 0.0 6.4 0.00 0.64 0.64 82 1009.8
20260506224536 11 37 3.2 8.0 0.00 0.64 0.64 82 1010.0
20260506223033 11 55 3.2 6.4 0.00 0.64 0.64 82 1009.7
20260506221530 11 60 3.2 9.7 0.00 0.64 0.64 82 1009.2
20260506220028 11 56 1.6 8.0 0.00 0.64 0.64 81 1009.2
20260506214524 12 52 1.6 19.3 0.00 0.64 0.64 82 1009.1
20260506213022 12 61 1.6 12.9 0.00 0.64 0.64 82 1008.8
20260506211517 13 264 3.2 9.7 0.00 0.64 0.64 82 1008.4
20260506210016 13 55 3.2 8.0 0.00 0.64 0.64 82 1008.0
20260506204516 13 39 1.6 8.0 0.00 0.64 0.64 82 1007.9
20260506203011 13 52 3.2 6.4 0.00 0.64 0.64 83 1007.7
20260506201510 13 76 1.6 11.3 0.00 0.64 0.64 84 1007.6
20260506200008 13 60 1.6 12.9 0.00 0.64 0.64 85 1007.5
20260506194511 13 90 1.6 8.0 0.00 0.64 0.64 87 1007.2
20260506193007 13 68 1.6 6.4 0.00 0.64 0.64 87 1007.0
20260506191507 15 53 4.8 14.5 0.00 0.64 0.64 86 1006.8
20260506190006 15 278 6.4 14.5 0.00 0.64 0.64 86 1006.5
20260506184505 16 80 1.6 4.8 0.00 0.64 0.64 92 1006.4
20260506183006 14 243 0.0 3.2 0.05 0.64 0.64 94 1006.6
20260506181504 13 199 0.0 1.6 0.05 0.64 0.64 94 1006.5
20260506180005 13 54 0.0 3.2 0.08 0.64 0.64 93 1006.5
20260506174502 14 239 1.6 6.4 0.10 0.64 0.64 94 1006.4
20260506173003 14 83 0.0 3.2 0.05 0.58 0.58 94 1006.3
20260506171502 14 290 0.0 4.8 0.05 0.58 0.58 94 1006.2
20260506164601 14 66 0.0 1.6 0.03 0.53 0.53 94 1005.8
20260506163107 14 108 0.0 4.8 0.03 0.53 0.53 94 1005.9
20260506161600 14 129 0.0 4.8 0.05 0.53 0.53 94 1006.1
20260506160108 14 33 0.0 1.6 0.05 0.53 0.53 95 1006.0
20260506154557 13 300 0.0 0.0 0.03 0.51 0.51 94 1006.0
20260506153056 13 301 0.0 0.0 0.03 0.51 0.51 94 1006.0
20260506151556 13 301 0.0 0.0 0.00 0.48 0.48 94 1005.9
20260506150056 13 301 0.0 0.0 0.00 0.48 0.48 94 1005.8
20260506144554 13 301 0.0 1.6 0.03 0.48 0.48 94 1005.6
20260506143053 12 62 0.0 1.6 0.05 0.48 0.48 94 1005.7
20260506141552 12 264 0.0 6.4 0.08 0.48 0.48 94 1005.6
20260506140051 12 146 0.0 0.0 0.08 0.48 0.48 94 1005.6
20260506134615 12 200 0.0 0.0 0.05 0.46 0.46 94 1005.5
20260506133049 12 200 0.0 0.0 0.05 0.43 0.43 94 1005.6
20260506131606 12 199 0.0 0.0 0.05 0.41 0.41 94 1005.8
20260506130048 12 199 0.0 0.0 0.10 0.41 0.41 94 1005.8